Wind_Speed
108 109 109 110 112 110 106 102 104 100 95 95 92 89 84 77 68 62 60 55 53 54 53 55 57 52 49 48 44 24 27 40 61 60 64 68 69 64
110 109 109 109 104 102 99 98 97 93 89 91 89 82 75 68 62 59 56 53 54 54 54 53 57 53 50 45 39 26 17 35 57 60 69 71 69 69
105 105 102 99 96 93 90 92 92 91 87 86 79 72 66 63 59 57 55 54 54 54 55 55 53 48 46 43 36 30 20 25 37 62 74 70 70 68
103 93 87 92 90 86 86 87 88 85 85 78 71 67 63 60 57 55 54 54 53 54 54 53 51 48 42 41 36 29 25 22 30 45 46 67 72 70
88 91 88 84 77 82 84 83 82 80 74 71 65 62 59 57 56 55 54 54 54 54 54 53 50 46 41 37 40 37 30 30 31 37 41 47 66 72
89 82 82 80 74 80 81 80 77 70 64 64 61 58 57 57 56 55 54 56 56 55 53 51 49 44 42 41 40 39 41 40 37 37 39 44 55 67
81 86 85 74 76 76 76 76 72 62 58 57 56 55 54 55 55 55 55 55 54 54 51 49 49 49 49 49 49 47 47 48 49 49 49 48 48 52
86 79 76 74 71 72 78 72 65 56 55 52 52 50 49 51 51 52 51 50 49 52 50 51 53 55 55 54 55 55 55 56 57 57 57 58 58 57
75 77 70 70 68 72 71 66 57 53 52 53 51 50 49 48 48 48 48 49 50 53 55 55 58 61 62 63 63 62 62 63 64 66 67 67 67 67
66 67 71 68 70 69 67 62 55 53 51 49 48 47 46 46 46 48 51 54 57 59 60 63 64 66 68 69 68 68 68 67 66 65 65 66 69 72
62 64 68 70 66 65 62 57 52 52 51 50 49 49 49 50 51 54 57 59 60 62 65 67 69 72 73 72 72 71 70 68 65 63 63 63 63 65
60 65 68 64 66 63 61 56 52 52 53 54 54 54 55 56 58 58 58 60 63 66 68 72 75 77 76 75 74 71 67 64 61 60 60 61 62 62
62 64 63 67 65 63 60 57 54 54 55 57 59 59 60 60 60 63 65 66 69 71 74 76 79 80 79 77 71 65 62 60 58 57 57 55 56 58
62 61 65 66 67 64 61 59 59 57 58 61 62 64 66 67 68 69 70 72 73 75 77 80 82 80 77 70 66 65 62 58 58 58 58 58 59 61
61 63 64 68 67 66 65 61 62 61 60 62 65 67 69 70 71 72 73 74 75 77 79 80 79 74 66 65 67 65 61 58 53 52 52 54 56 56
65 64 67 68 69 68 68 64 64 65 66 66 67 68 69 70 71 72 73 76 78 79 81 76 70 65 65 63 64 62 57 53 47 45 46 47 47 49
64 66 69 71 71 70 70 67 68 71 70 70 69 70 70 70 71 72 74 77 79 81 76 66 61 62 64 63 61 57 50 44 40 38 38 39 35 34
67 71 73 72 71 74 69 68 71 73 69 70 70 70 69 70 71 72 75 77 80 77 65 61 58 59 60 61 57 46 42 39 35 33 34 34 29 30
71 75 72 73 74 67 67 70 70 67 69 70 70 70 71 71 72 74 76 78 75 67 62 59 57 57 58 58 49 34 34 32 31 30 30 29 27 27
71 72 73 69 66 69 71 66 67 69 70 69 71 71 72 73 73 77 78 74 67 63 61 58 56 55 53 49 41 26 27 29 26 24 26 26 26 26
70 66 66 67 70 67 66 67 68 68 67 68 70 71 72 74 76 78 74 67 62 61 62 58 55 49 44 39 32 23 25 27 25 23 26 27 24 24
63 67 68 66 66 67 68 66 65 67 69 71 72 73 74 75 76 74 67 64 61 59 58 58 51 43 36 31 26 23 22 23 27 30 31 36 36 33
64 64 63 63 64 64 66 69 70 71 71 72 73 73 74 73 71 64 62 61 60 57 55 54 43 32 27 28 28 24 23 26 30 33 34 37 41 44
Wind_Direction
291 293 295 296 298 299 300 300 303 303 303 304 305 305 306 305 304 304 304 303 304 307 310 314 313 315 316 320 324 307 258 230 220 220 226 228 229 231
291 293 294 295 297 297 299 301 302 303 304 304 305 306 305 304 302 302 303 302 304 307 311 314 315 318 321 323 329 336 304 232 221 226 224 227 230 231
292 293 293 294 296 299 300 302 301 304 305 305 306 305 302 302 301 301 300 303 305 309 311 313 313 316 318 323 329 329 330 268 243 234 226 229 231 230
290 291 292 294 297 297 301 302 304 306 304 305 305 302 301 300 300 299 301 301 304 306 308 310 311 313 315 316 316 319 314 300 263 259 253 237 231 233
288 289 294 296 296 298 301 302 304 305 304 306 304 302 301 300 301 300 300 302 303 305 308 309 309 310 309 309 313 313 306 294 287 281 270 256 244 237
289 294 294 299 297 298 300 302 304 304 303 304 303 302 301 299 299 301 302 302 304 307 306 307 309 309 308 305 302 297 294 290 282 270 267 260 251 247
293 294 297 294 294 297 300 302 304 301 301 304 305 302 300 300 301 301 301 304 304 305 309 309 307 306 305 303 300 295 290 286 283 278 271 264 261 257
290 291 292 292 295 297 298 303 302 300 301 302 302 305 308 305 303 304 303 304 306 308 310 310 308 306 305 302 298 294 292 289 283 278 274 269 266 260
283 287 289 291 294 297 299 302 300 299 302 303 303 304 305 305 304 305 307 308 308 308 309 309 309 309 308 304 301 296 292 286 282 278 275 272 268 264
283 286 285 289 296 297 301 302 298 297 301 304 305 306 307 307 307 307 307 308 308 308 307 307 308 308 307 305 302 298 294 290 286 282 276 272 268 265
281 281 286 290 292 298 300 298 297 298 300 303 305 305 303 304 304 305 306 306 307 307 306 308 309 309 308 305 301 298 296 293 289 285 281 276 271 266
279 282 286 290 296 296 299 299 297 298 298 299 300 299 300 302 303 304 304 305 306 307 308 308 310 310 307 304 301 299 296 293 291 287 282 278 275 271
280 284 286 293 293 296 300 299 297 295 295 296 296 298 299 301 302 303 304 305 306 308 309 309 310 309 306 303 301 297 295 294 292 288 284 279 274 270
280 283 287 289 292 295 298 297 297 296 295 294 295 296 297 298 299 301 303 303 305 307 308 309 310 307 304 302 298 297 296 294 292 289 286 280 274 270
280 283 285 290 291 295 298 297 295 295 296 295 295 295 295 297 299 300 301 303 305 306 308 309 308 304 302 301 299 298 298 295 293 291 285 280 277 274
280 282 285 286 290 294 297 294 296 298 297 297 298 298 298 299 300 301 302 304 306 307 309 309 306 304 303 299 299 300 300 303 297 288 284 282 282 283
278 281 284 286 289 293 295 295 297 299 298 298 299 300 300 299 300 302 304 305 307 308 309 308 306 305 303 303 303 304 307 299 299 299 298 294 293 291
277 280 284 286 289 292 293 294 297 298 297 299 301 301 300 300 301 303 305 307 308 308 308 308 307 306 303 303 303 309 301 303 304 306 304 303 304 297
278 282 283 286 289 290 293 296 296 295 298 300 300 300 300 301 303 305 307 309 309 309 308 308 308 305 303 301 302 304 301 303 307 311 310 312 309 302
279 283 285 288 290 292 294 294 294 297 299 299 299 300 301 303 306 308 309 310 309 309 309 309 306 304 302 298 298 300 298 299 306 312 312 314 314 312
283 284 285 288 291 293 294 295 296 298 298 299 301 302 303 305 308 308 309 309 309 309 309 306 305 304 297 294 293 296 294 298 303 308 311 313 316 321
283 285 288 291 292 293 294 296 295 297 298 299 303 304 305 306 308 308 307 309 309 310 307 305 307 302 295 287 287 290 286 289 298 305 312 313 315 315
287 288 290 292 294 294 295 295 295 296 298 300 303 304 306 306 306 305 307 309 310 308 306 305 305 296 289 287 291 294 287 288 296 299 302 306 309 311
Height
10656 10650 10643 10635 10628 10620 10612 10603 10595 10585 10571 10561 10553 10544 10534 10527 10519 10512 10505 10498 10492 10486 10481 10472 10462 10454 10447 10436 10424 10416 10417 10421 10431 10443 10453 10460 10468 10475
10638 10631 10624 10618 10610 10603 10594 10586 10575 10567 10558 10544 10535 10525 10517 10510 10503 10498 10491 10485 10479 10473 10466 10460 10450 10442 10434 10427 10419 10413 10414 10418 10424 10431 10437 10446 10453 10459
10620 10614 10606 10600 10592 10584 10576 10567 10558 10549 10539 10527 10517 10509 10502 10496 10490 10485 10478 10473 10466 10459 10455 10448 10441 10436 10427 10421 10415 10413 10412 10415 10418 10421 10424 10431 10438 10445
10602 10596 10589 10582 10575 10567 10560 10551 10542 10533 10522 10513 10502 10494 10488 10482 10477 10472 10467 10461 10456 10450 10445 10439 10432 10426 10422 10416 10413 10410 10408 10408 10411 10413 10416 10422 10426 10431
10583 10577 10571 10564 10559 10551 10544 10535 10527 10517 10506 10497 10489 10482 10475 10469 10464 10459 10453 10448 10443 10439 10433 10427 10422 10419 10414 10410 10404 10401 10403 10402 10400 10402 10404 10408 10413 10416
10564 10559 10554 10548 10542 10534 10527 10520 10511 10503 10493 10484 10476 10468 10462 10456 10451 10446 10440 10434 10429 10425 10421 10417 10411 10407 10404 10401 10399 10396 10393 10392 10393 10392 10391 10390 10391 10393
10547 10543 10537 10532 10526 10519 10512 10504 10497 10489 10481 10472 10463 10456 10449 10443 10437 10431 10427 10422 10417 10412 10408 10403 10399 10396 10392 10388 10385 10384 10381 10378 10376 10374 10375 10374 10372 10373
10531 10527 10522 10517 10511 10504 10496 10489 10482 10475 10468 10460 10453 10445 10438 10432 10426 10421 10415 10410 10404 10401 10396 10391 10385 10381 10378 10375 10371 10367 10362 10358 10356 10354 10352 10350 10350 10351
10515 10510 10507 10501 10496 10489 10481 10475 10468 10462 10455 10448 10440 10433 10426 10422 10417 10411 10404 10399 10394 10387 10382 10377 10371 10364 10359 10354 10349 10344 10341 10337 10333 10329 10326 10324 10324 10324
10498 10496 10491 10486 10480 10473 10466 10460 10454 10449 10443 10437 10429 10422 10416 10411 10406 10400 10394 10388 10381 10375 10368 10362 10356 10350 10341 10333 10327 10321 10315 10311 10306 10303 10300 10297 10295 10293
10484 10479 10475 10471 10466 10460 10454 10447 10441 10435 10429 10423 10417 10411 10405 10399 10394 10388 10381 10375 10368 10360 10352 10344 10338 10330 10320 10311 10303 10297 10290 10283 10279 10275 10271 10269 10267 10266
10469 10465 10460 10455 10450 10447 10440 10433 10427 10421 10416 10410 10404 10398 10391 10385 10379 10374 10368 10361 10353 10344 10336 10326 10318 10307 10298 10289 10280 10273 10267 10261 10256 10252 10247 10243 10240 10239
10453 10449 10445 10440 10436 10431 10425 10419 10414 10408 10402 10395 10389 10382 10375 10369 10363 10357 10350 10343 10335 10326 10316 10306 10297 10286 10275 10265 10257 10251 10245 10241 10235 10230 10226 10223 10219 10215
10439 10434 10429 10425 10420 10416 10410 10404 10399 10392 10386 10380 10373 10367 10360 10353 10347 10340 10333 10325 10317 10308 10298 10286 10275 10264 10253 10242 10233 10228 10226 10222 10214 10207 10202 10197 10192 10188
10422 10418 10414 10410 10405 10400 10395 10389 10382 10376 10371 10364 10357 10351 10344 10338 10331 10323 10314 10305 10297 10289 10278 10268 10255 10241 10232 10223 10211 10205 10202 10198 10195 10187 10178 10170 10165 10164
10406 10403 10399 10395 10390 10384 10378 10372 10366 10361 10354 10347 10340 10333 10327 10320 10312 10304 10295 10285 10275 10267 10257 10246 10233 10221 10212 10203 10194 10187 10183 10175 10169 10163 10156 10152 10149 10146
10390 10386 10382 10378 10374 10367 10362 10356 10349 10343 10336 10329 10322 10316 10308 10300 10293 10285 10276 10265 10254 10243 10234 10226 10217 10205 10191 10182 10175 10170 10164 10157 10152 10148 10143 10137 10137 10133
10373 10369 10365 10362 10357 10351 10346 10339 10332 10325 10318 10312 10305 10297 10290 10282 10275 10267 10257 10245 10233 10222 10214 10207 10199 10188 10176 10165 10160 10156 10148 10142 10140 10136 10130 10125 10125 10119
10357 10353 10350 10345 10340 10334 10329 10323 10316 10308 10302 10295 10288 10279 10271 10263 10256 10247 10236 10225 10212 10202 10196 10189 10181 10171 10160 10150 10145 10145 10137 10132 10128 10125 10120 10117 10114 10109
10340 10337 10333 10327 10322 10317 10312 10304 10299 10292 10285 10277 10269 10261 10252 10243 10235 10225 10215 10204 10194 10185 10177 10172 10164 10155 10146 10137 10132 10134 10127 10122 10121 10118 10112 10108 10104 10101
10324 10319 10315 10310 10305 10299 10294 10288 10282 10275 10268 10259 10251 10243 10234 10225 10216 10204 10194 10186 10179 10170 10159 10153 10148 10140 10131 10125 10122 10121 10118 10113 10110 10109 10106 10100 10098 10094
10307 10302 10298 10293 10288 10282 10277 10271 10264 10258 10250 10241 10234 10225 10216 10207 10197 10186 10178 10170 10162 10155 10145 10136 10131 10124 10118 10113 10112 10112 10110 10107 10103 10099 10095 10089 10085 10083
10290 10286 10282 10277 10272 10265 10260 10253 10247 10240 10232 10224 10216 10207 10198 10188 10179 10169 10161 10154 10146 10138 10131 10122 10117 10112 10107 10103 10101 10101 10101 10098 10095 10091 10088 10083 10077 10070